"2009-09-15 00:00:00",1241568,2.976,74.49,6.17,0.098,19.66,109.0664,22.5,23.51,32.4,0,111,13.15,23.33,36.5
"2009-09-15 00:00:30",1241569,3.46,85.8,3.788,0.303,19.65,109.0667,22.5,23.51,32.41,0,111,13.15,23.33,47.8
"2009-09-15 00:01:00",1241570,3.353,81.1,2.818,0.162,19.68,109.0664,22.5,23.52,32.15,0,111,13.15,23.33,43.1
"2009-09-15 00:01:30",1241571,3.431,71.15,3.803,0.15,19.64,109.0675,22.5,23.52,31.92,0,111,13.15,23.33,33.2
"2009-09-15 00:02:00",1241572,3.225,66.17,3.735,0.282,19.64,109.0698,22.51,23.53,31.98,0,111,13.15,23.34,28.2
"2009-09-15 00:02:30",1241573,2.923,61.92,4.285,0.123,19.61,109.0752,22.52,23.55,32.04,0,111,13.15,23.35,23.9
"2009-09-15 00:03:00",1241574,3.003,60.14,2.785,0.173,19.57,109.078,22.53,23.56,32.22,0,111,13.15,23.36,22.1
"2009-09-15 00:03:30",1241575,2.855,65.13,3.545,0.188,19.67,109.0887,22.55,23.57,32.2,0,111,13.15,23.38,27.1
"2009-09-15 00:04:00",1241576,3.067,81.5,5.401,0.237,19.7,109.0963,22.57,23.56,32.13,0,111,13.15,23.40,43.5
"2009-09-15 00:04:30",1241577,3.276,80.1,1.523,0.161,19.76,109.1002,22.58,23.59,32.01,0,111,13.15,23.41,42.1
"2009-09-15 00:05:00",1241578,3.586,80.5,4.976,0.209,19.81,109.1029,22.59,23.59,31.99,0,111,13.15,23.42,42.5
"2009-09-15 00:05:30",1241579,3.439,67.71,3.126,0.245,19.79,109.1062,22.6,23.6,31.87,0,111,13.15,23.43,29.7
"2009-09-15 00:06:00",1241580,3.467,72.63,4.348,0.154,19.81,109.1056,22.6,23.6,31.75,0,111,13.15,23.43,34.6
"2009-09-15 00:06:30",1241581,3.624,76.39,2.588,0.122,19.82,109.113,22.62,23.62,31.53,0,111,13.15,23.45,38.4
"2009-09-15 00:07:00",1241582,3.301,75.26,2.167,0.154,19.77,109.1148,22.62,23.63,31.53,0,111,13.15,23.45,37.3
"2009-09-15 00:07:30",1241583,3.043,70.29,2.421,0.464,19.78,109.1185,22.63,23.63,31.58,0,111,13.14,23.46,32.3
"2009-09-15 00:08:00",1241584,2.324,74.14,1.534,0.139,19.74,109.1191,22.63,23.62,31.3,0,111,13.14,23.46,36.1
"2009-09-15 00:08:30",1241585,2.449,78.48,2.276,0.111,19.77,109.1246,22.65,23.63,31.25,0,111,13.14,23.48,40.5
"2009-09-15 00:09:00",1241586,2.708,82.3,3.242,0.244,19.81,109.1252,22.65,23.64,31.5,0,111,13.14,23.48,44.3
"2009-09-15 00:09:30",1241587,2.902,81.1,2.844,0.227,19.85,109.1258,22.65,23.64,31.38,0,111,13.14,23.48,43.1
"2009-09-15 00:10:00",1241588,3.224,86.9,7.873,0.368,19.93,109.1271,22.65,23.65,31.58,0,111,13.14,23.48,48.9
"2009-09-15 00:10:30",1241589,3.178,92.9,3.483,0.303,20.01,109.1277,22.65,23.64,31.94,0,111,13.14,23.48,54.9
"2009-09-15 00:11:00",1241590,3.256,95.3,3.223,0.168,20.08,109.1274,22.65,23.65,31.92,0,111,13.14,23.48,57.3
"2009-09-15 00:11:30",1241591,3.632,103.1,4.506,0.26,20.2,109.1271,22.65,23.64,32.03,0,111,13.14,23.48,65.1
"2009-09-15 00:12:00",1241592,3.27,108.8,2.453,0.378,20.23,109.1263,22.65,23.65,32.15,0,111,13.14,23.48,70.8
"2009-09-15 00:12:30",1241593,3.067,85.5,6.188,0.247,20.23,109.1173,22.63,23.65,31.99,0,111,13.14,23.46,47.5
"2009-09-15 00:13:00",1241594,2.92,81.6,3.269,0.146,20.25,109.105,22.6,23.64,31.87,0,111,13.15,23.43,43.6
"2009-09-15 00:13:30",1241595,3.332,82.6,2.189,0.215,20.31,109.0976,22.58,23.63,31.88,0,111,13.15,23.41,44.6
"2009-09-15 00:14:00",1241596,3.167,79.69,1.574,0.233,20.33,109.0949,22.57,23.61,31.88,0,111,13.15,23.40,41.7
"2009-09-15 00:14:30",1241597,2.447,84,8.87,0.205,20.29,109.097,22.58,23.61,31.9,0,111,13.15,23.41,46.0
"2009-09-15 00:15:00",1241598,2.751,100.2,2.963,0.205,20.39,109.0992,22.58,23.59,31.88,0,111,13.15,23.41,62.2
"2009-09-15 00:15:30",1241599,2.756,92.2,8.32,0.249,20.31,109.0952,22.57,23.57,31.68,0,111,13.15,23.40,54.2
"2009-09-15 00:16:00",1241600,3.224,81.9,5.129,0.254,20.3,109.0773,22.52,23.58,31.58,0,111,13.15,23.36,43.9
"2009-09-15 00:16:30",1241601,3.416,78.16,2.972,0.182,20.32,109.0695,22.5,23.56,31.54,0,111,13.15,23.34,40.2
"2009-09-15 00:17:00",1241602,2.859,82.3,6.403,0.181,20.34,109.0695,22.5,23.54,31.41,0,111,13.15,23.34,44.3
"2009-09-15 00:17:30",1241603,2.755,76.64,4.768,0.134,20.31,109.0627,22.49,23.53,31.58,0,111,13.15,23.32,38.6
"2009-09-15 00:18:00",1241604,2.788,67.7,4.641,0.159,20.28,109.0422,22.43,23.52,31.04,0,111,13.15,23.26,29.7
"2009-09-15 00:18:30",1241605,2.723,76.07,1.966,0.066,20.32,109.0357,22.42,23.49,31.12,0,111,13.15,23.25,38.1
"2009-09-15 00:19:00",1241606,2.571,76.91,3.677,0.122,20.31,109.0357,22.42,23.47,31.42,0,111,13.15,23.25,38.9
"2009-09-15 00:19:30",1241607,2.568,80.3,4.585,0.177,20.41,109.0273,22.4,23.45,31.73,0,111,13.15,23.23,42.3
"2009-09-15 00:20:00",1241608,2.656,75.74,5.06,0.304,20.34,109.0099,22.35,23.43,31.94,0,111,13.15,23.18,37.7
"2009-09-15 00:20:30",1241609,3.009,67.56,3.636,0.111,20.28,109.002,22.33,23.43,31.35,0,111,13.15,23.16,29.6
"2009-09-15 00:21:00",1241610,2.721,75.62,2.81,0.113,20.29,109.002,22.33,23.39,31.09,0,111,13.15,23.16,37.6
"2009-09-15 00:21:30",1241611,2.831,75.82,3.892,0.131,20.31,108.995,22.31,23.38,31.18,0,111,13.15,23.14,37.8
"2009-09-15 00:22:00",1241612,2.771,74.31,2.64,0.217,20.29,108.9753,22.26,23.36,31.14,0,111,13.15,23.09,36.3
"2009-09-15 00:22:30",1241613,2.916,72.76,2.83,0.135,20.3,108.9686,22.25,23.35,31.03,0,111,13.16,23.08,34.8
"2009-09-15 00:23:00",1241614,3.115,77.26,1.913,0.148,20.3,108.9695,22.25,23.33,30.92,0,111,13.16,23.08,39.3
"2009-09-15 00:23:30",1241615,2.849,76.39,2.085,0.1,20.31,108.965,22.24,23.29,30.92,0,111,13.16,23.07,38.4
"2009-09-15 00:24:00",1241616,2.717,75.1,2.23,0.17,20.29,108.9457,22.19,23.3,30.97,0,111,13.16,23.02,37.1
"2009-09-15 00:24:30",1241617,2.594,76.36,3.115,0.148,20.41,108.9373,22.17,23.27,31.24,0,111,13.15,22.99,38.4
"2009-09-15 00:25:00",1241618,2.376,81,2.774,0.115,20.35,108.9367,22.16,23.25,31.68,0,111,13.15,22.99,43.0
"2009-09-15 00:25:30",1241619,2.518,85.9,1.356,0.101,20.46,108.9379,22.17,23.23,32.2,0,111,13.15,23.00,47.9
"2009-09-15 00:26:00",1241620,2.332,85.7,2.084,0.134,20.45,108.9217,22.12,23.22,32.42,0,111,13.15,22.95,47.7
"2009-09-15 00:26:30",1241621,2.061,82.9,2.101,0.114,20.43,108.914,22.11,23.21,32.5,0,111,13.15,22.93,44.9
"2009-09-15 00:27:00",1241622,2.406,77.87,1.956,0.135,20.42,108.9208,22.12,23.18,32.35,0,111,13.15,22.95,39.9
"2009-09-15 00:27:30",1241623,2.196,77.66,2.705,0.113,20.42,108.9207,22.12,23.15,32.13,0,111,13.15,22.95,39.7
"2009-09-15 00:28:00",1241624,2.349,75.44,2.508,0.159,20.41,108.9061,22.08,23.15,32.22,0,111,13.15,22.91,37.4
"2009-09-15 00:28:30",1241625,2.36,77.6,6.662,0.114,20.34,108.8954,22.06,23.14,31.99,0,111,13.15,22.89,39.6
"2009-09-15 00:29:00",1241626,2.348,84.9,4.618,0.084,20.39,108.8947,22.06,23.12,32.19,0,111,13.15,22.88,46.9
"2009-09-15 00:29:30",1241627,2.245,88.1,1.612,0.169,20.42,108.8953,22.06,23.1,32.18,0,111,13.16,22.89,50.1
"2009-09-15 00:30:00",1241628,2.224,89,1.347,0.105,20.46,108.8893,22.04,23.08,32.54,0,111,13.16,22.87,51.0
"2009-09-15 00:30:30",1241629,2.191,88,2.262,0.123,20.5,108.8719,22,23.07,32.91,0,111,13.16,22.83,50.0
"2009-09-15 00:31:00",1241630,2.284,85.1,5.071,0.078,20.42,108.8652,21.98,23.05,32.91,0,111,13.16,22.81,47.1
"2009-09-15 00:31:30",1241631,2.46,75.74,2.738,0.149,20.39,108.8683,21.99,23.05,32.3,0,111,13.16,22.82,37.7
"2009-09-15 00:32:00",1241632,2.25,72.02,5.166,0.108,20.4,108.8681,21.99,23.01,32.4,0,110.9,13.16,22.82,34.0
"2009-09-15 00:32:30",1241633,2.249,88.7,1.86,0.104,20.5,108.8589,21.96,23.01,32.56,0,110.9,13.17,22.79,50.7
"2009-09-15 00:33:00",1241634,2.06,84.6,4.411,0.178,20.5,108.8429,21.92,22.99,32.79,0,110.9,13.17,22.75,46.6
"2009-09-15 00:33:30",1241635,1.951,80.9,3.988,0.071,20.45,108.8364,21.91,22.97,33.17,0,110.9,13.17,22.73,42.9
"2009-09-15 00:34:00",1241636,1.858,79.88,2.207,0.092,20.4,108.8364,21.91,22.97,32.7,0,111,13.17,22.73,41.9
"2009-09-15 00:34:30",1241637,1.876,81.3,7.572,0.123,20.42,108.8364,21.91,22.93,32.64,0,111,13.17,22.73,43.3
"2009-09-15 00:35:00",1241638,1.63,80.3,9.85,0.084,20.4,108.828,21.88,22.93,32.17,0,110.9,13.17,22.71,42.3
"2009-09-15 00:35:30",1241639,1.523,91.1,2.182,0.107,20.53,108.8125,21.84,22.92,33.04,0,110.9,13.17,22.67,53.1
"2009-09-15 00:36:00",1241640,1.62,83.8,3.908,0.15,20.46,108.8033,21.82,22.9,33.23,0,110.9,13.17,22.65,45.8
"2009-09-15 00:36:30",1241641,1.667,90.6,2.198,0.072,20.5,108.8027,21.82,22.89,33.27,0,110.9,13.17,22.65,52.6
"2009-09-15 00:37:00",1241642,1.697,81.2,3.97,0.105,20.43,108.8027,21.82,22.88,33.39,0,110.9,13.17,22.65,43.2
"2009-09-15 00:37:30",1241643,1.524,82.4,3.517,0.147,20.45,108.8027,21.82,22.86,33.29,0,110.9,13.18,22.65,44.4
"2009-09-15 00:38:00",1241644,1.551,82.4,3.421,0.163,20.45,108.7979,21.81,22.85,33.3,0,110.9,13.18,22.64,44.4
"2009-09-15 00:38:30",1241645,1.826,85.8,1.222,0.067,20.5,108.7799,21.76,22.84,33.42,0,110.9,13.18,22.59,47.8
"2009-09-15 00:39:00",1241646,1.629,83.6,2.774,0.074,20.46,108.7693,21.73,22.83,33.43,0,110.9,13.18,22.56,45.6
"2009-09-15 00:39:30",1241647,1.89,75.48,2.026,0.073,20.44,108.769,21.73,22.81,33.1,0,110.9,13.18,22.56,37.5
"2009-09-15 00:40:00",1241648,1.814,74.02,2.269,0.077,20.47,108.769,21.73,22.8,32.68,0,110.9,13.18,22.56,36.0
"2009-09-15 00:40:30",1241649,1.715,76.5,2.09,0.059,20.41,108.7708,21.74,22.79,32.72,0,110.9,13.18,22.57,38.5
"2009-09-15 00:41:00",1241650,1.646,70.69,1.568,0.033,20.45,108.7703,21.74,22.8,32.79,0,110.9,13.18,22.56,32.7
"2009-09-15 00:41:30",1241651,1.661,69.2,3.501,0.067,20.44,108.7578,21.7,22.78,32.63,0,110.9,13.17,22.53,31.2
"2009-09-15 00:42:00",1241652,1.596,64.9,1.255,0.037,20.39,108.7515,21.69,22.76,32.48,0,110.9,13.17,22.52,26.9
"2009-09-15 00:42:30",1241653,1.675,61.06,2.297,0.103,20.34,108.7517,21.69,22.77,32.23,0,110.9,13.17,22.52,23.1
"2009-09-15 00:43:00",1241654,1.706,56.94,1.165,0.034,20.39,108.7569,21.7,22.74,32.02,0,110.9,13.17,22.53,18.9
"2009-09-15 00:43:30",1241655,1.739,55.39,1.525,0.044,20.39,108.7615,21.71,22.72,31.83,0,110.9,13.17,22.54,17.4
"2009-09-15 00:44:00",1241656,1.614,58.18,1.666,0.061,20.3,108.7616,21.71,22.72,31.94,0,110.9,13.17,22.54,20.2
"2009-09-15 00:44:30",1241657,1.643,57.36,1.266,0.068,20.39,108.7465,21.68,22.72,32.22,0,110.9,13.17,22.50,19.4
"2009-09-15 00:45:00",1241658,1.709,57.42,1.577,0.052,20.47,108.7352,21.65,22.7,32.38,0,110.9,13.17,22.47,19.4
"2009-09-15 00:45:30",1241659,1.667,58.49,2.152,0.033,20.39,108.7305,21.63,22.69,32.6,0,110.9,13.17,22.46,20.5
"2009-09-15 00:46:00",1241660,1.711,54.65,0.738,0.035,20.54,108.7321,21.64,22.68,32.69,0,110.9,13.17,22.47,16.7
"2009-09-15 00:46:30",1241661,1.664,50.71,0.889,0.035,20.55,108.7327,21.64,22.67,32.77,0,110.9,13.18,22.47,12.7
"2009-09-15 00:47:00",1241662,1.735,50.66,1.249,0.04,20.56,108.7327,21.64,22.67,32.84,0,110.9,13.18,22.47,12.7
"2009-09-15 00:47:30",1241663,1.713,51.19,1.506,0.058,20.53,108.7173,21.6,22.65,33.17,0,110.9,13.18,22.43,13.2
"2009-09-15 00:48:00",1241664,1.792,50.48,2.03,0.103,20.47,108.7056,21.57,22.63,33.18,0,110.9,13.18,22.40,12.5
"2009-09-15 00:48:30",1241665,1.88,49.33,1.279,0.05,20.4,108.7045,21.57,22.62,33.13,0,110.9,13.18,22.39,11.3
"2009-09-15 00:49:00",1241666,1.829,49.71,0.644,0.043,20.5,108.7045,21.57,22.6,33.12,0,110.9,13.19,22.39,11.7
"2009-09-15 00:49:30",1241667,1.788,48.42,0.938,0.046,20.48,108.7033,21.56,22.6,33.19,0,110.9,13.19,22.39,10.4
"2009-09-15 00:50:00",1241668,1.641,49.12,1.306,0.048,20.59,108.6946,21.54,22.59,33.55,0,110.9,13.19,22.37,11.1
"2009-09-15 00:50:30",1241669,1.575,50.18,1.836,0.054,20.59,108.6794,21.5,22.57,33.75,0,110.9,13.19,22.33,12.2
"2009-09-15 00:51:00",1241670,1.591,51.13,1.897,0.062,20.58,108.6716,21.48,22.55,33.77,0,110.9,13.19,22.31,13.1
"2009-09-15 00:51:30",1241671,1.558,49.93,0.886,0.032,20.57,108.6707,21.48,22.55,33.56,0,110.9,13.19,22.31,11.9
"2009-09-15 00:52:00",1241672,1.557,49.96,1.073,0.049,20.57,108.6707,21.48,22.52,33.43,0,110.9,13.19,22.31,12.0
"2009-09-15 00:52:30",1241673,1.528,51.39,1.867,0.077,20.55,108.6707,21.48,22.53,33.56,0,110.9,13.19,22.31,13.4
"2009-09-15 00:53:00",1241674,1.497,52.78,1.118,0.077,20.53,108.6642,21.46,22.5,33.62,0,110.9,13.19,22.29,14.8
"2009-09-15 00:53:30",1241675,1.528,50.6,1.297,0.081,20.55,108.6502,21.43,22.51,33.76,0,110.9,13.19,22.25,12.6
"2009-09-15 00:54:00",1241676,1.638,50.92,1.71,0.046,20.58,108.6389,21.4,22.49,33.84,0,110.9,13.19,22.23,12.9
"2009-09-15 00:54:30",1241677,1.637,51.86,1.508,0.036,20.58,108.637,21.39,22.48,33.87,0,110.9,13.19,22.22,13.9
"2009-09-15 00:55:00",1241678,1.667,49.68,1.497,0.052,20.61,108.637,21.39,22.46,33.87,0,110.9,13.19,22.22,11.7
"2009-09-15 00:55:30",1241679,1.579,49.65,0.992,0.042,20.57,108.637,21.39,22.44,33.96,0,110.9,13.19,22.22,11.7
"2009-09-15 00:56:00",1241680,1.607,48.81,0.868,0.037,20.55,108.6367,21.39,22.44,34.06,0,110.9,13.19,22.22,10.8
"2009-09-15 00:56:30",1241681,1.607,50.82,1.126,0.033,20.61,108.6305,21.38,22.42,34.17,0,110.9,13.19,22.20,12.8
"2009-09-15 00:57:00",1241682,1.548,52.1,0.983,0.039,20.56,108.6246,21.36,22.42,34.28,0,110.9,13.19,22.19,14.1
"2009-09-15 00:57:30",1241683,1.484,53.67,1.699,0.069,20.52,108.6162,21.34,22.41,34.37,0,110.9,13.19,22.17,15.7
"2009-09-15 00:58:00",1241684,1.447,51.88,1.705,0.079,20.53,108.6059,21.31,22.4,34.5,0,110.9,13.2,22.14,13.9
"2009-09-15 00:58:30",1241685,1.321,51.57,1.767,0.041,20.52,108.606,21.31,22.4,34.68,0,110.9,13.19,22.14,13.6
"2009-09-15 00:59:00",1241686,1.308,48.33,1.117,0.073,20.56,108.6072,21.32,22.39,34.68,0,110.9,13.19,22.14,10.3
"2009-09-15 00:59:30",1241687,1.365,46.41,1.01,0.036,20.61,108.6087,21.32,22.38,34.69,0,110.9,13.19,22.15,8.4
"2009-09-15 01:00:00",1241688,1.253,46.27,1.413,0.047,20.55,108.6087,21.32,22.37,34.81,0,110.9,13.19,22.15,8.3
"2009-09-15 01:00:30",1241689,1.242,49.88,1.746,0.064,20.42,108.6062,21.32,22.36,34.88,0,110.9,13.19,22.14,11.9
"2009-09-15 01:01:00",1241690,1.157,47.15,1.788,0.059,20.43,108.5949,21.29,22.35,34.83,0,110.9,13.19,22.11,9.2
"2009-09-15 01:01:30",1241691,1.103,47.2,1.754,0.061,20.43,108.5825,21.25,22.34,34.84,0,110.9,13.19,22.08,9.2
"2009-09-15 01:02:00",1241692,1.317,43.62,2.532,0.087,20.57,108.582,21.25,22.33,34.99,0,110.9,13.19,22.08,5.6
"2009-09-15 01:02:30",1241693,1.366,42.71,1.995,0.049,20.62,108.5863,21.26,22.32,34.78,0,110.9,13.19,22.09,4.7
"2009-09-15 01:03:00",1241694,1.375,43.92,0.797,0.023,20.61,108.5903,21.27,22.31,34.71,0,110.9,13.19,22.10,5.9
"2009-09-15 01:03:30",1241695,1.336,46.01,1.152,0.047,20.61,108.594,21.28,22.3,34.71,0,110.9,13.19,22.11,8.0
"2009-09-15 01:04:00",1241696,1.364,46.49,1.882,0.063,20.59,108.5941,21.28,22.28,34.72,0,110.9,13.2,22.11,8.5
"2009-09-15 01:04:30",1241697,1.337,46.79,1.443,0.034,20.55,108.5846,21.26,22.26,34.79,0,110.9,13.2,22.09,8.8
"2009-09-15 01:05:00",1241698,1.326,48.35,1.679,0.057,20.58,108.5731,21.23,22.27,34.81,0,110.9,13.2,22.06,10.3
"2009-09-15 01:05:30",1241699,1.282,47.7,2.34,0.046,20.52,108.5715,21.23,22.25,34.92,0,110.9,13.2,22.05,9.7
"2009-09-15 01:06:00",1241700,1.274,45.25,1.138,0.051,20.55,108.5724,21.23,22.24,34.86,0,110.9,13.2,22.05,7.2
"2009-09-15 01:06:30",1241701,1.225,46.77,0.744,0.049,20.52,108.5724,21.23,22.24,34.8,0,110.8,13.2,22.05,8.8
"2009-09-15 01:07:00",1241702,1.304,46.34,1.155,0.058,20.54,108.5685,21.22,22.22,34.78,0,110.8,13.2,22.04,8.3
"2009-09-15 01:07:30",1241703,1.36,47.14,1.951,0.079,20.59,108.555,21.18,22.21,34.86,0,110.8,13.2,22.01,9.1
"2009-09-15 01:08:00",1241704,1.233,49.6,2.057,0.049,20.47,108.5412,21.15,22.2,35.31,0,110.8,13.2,21.97,11.6
"2009-09-15 01:08:30",1241705,1.228,48.27,0.907,0.046,20.51,108.5386,21.14,22.19,35.31,0,110.8,13.2,21.97,10.3
"2009-09-15 01:09:00",1241706,1.122,48.2,1.385,0.073,20.48,108.5386,21.14,22.18,35.49,0,110.8,13.2,21.97,10.2
"2009-09-15 01:09:30",1241707,0.998,51.11,1.272,0.025,20.65,108.5386,21.14,22.17,35.94,0,110.8,13.2,21.97,13.1
"2009-09-15 01:10:00",1241708,0.995,52.21,0.761,0.025,20.65,108.5386,21.14,22.15,36.21,0,110.8,13.2,21.97,14.2
"2009-09-15 01:10:30",1241709,0.938,52.28,1.036,0.021,20.74,108.5344,21.13,22.15,36.35,0,110.8,13.2,21.96,14.3
"2009-09-15 01:11:00",1241710,0.924,49.37,1.19,0.002,20.62,108.5257,21.11,22.15,36.38,0,110.8,13.2,21.93,11.4
"2009-09-15 01:11:30",1241711,0.922,48.31,0.761,0.01,20.61,108.5102,21.07,22.12,36.38,0,110.8,13.2,21.89,10.3
"2009-09-15 01:12:00",1241712,0.89,48.44,0.795,0.029,20.65,108.5049,21.06,22.12,36.31,0,110.8,13.2,21.88,10.4
"2009-09-15 01:12:30",1241713,0.912,46.62,0.583,0.025,20.56,108.5049,21.06,22.11,36.36,0,110.8,13.2,21.88,8.6
"2009-09-15 01:13:00",1241714,0.867,45.88,0.944,0,20.6,108.5049,21.06,22.1,36.47,0,110.8,13.21,21.88,7.9
"2009-09-15 01:13:30",1241715,0.86,44.53,0.466,0.023,20.63,108.5049,21.06,22.09,36.58,0,110.8,13.21,21.88,6.5
"2009-09-15 01:14:00",1241716,0.79,43.47,0.382,0.01,20.74,108.5043,21.05,22.08,36.67,0,110.8,13.21,21.88,5.5
"2009-09-15 01:14:30",1241717,0.737,43.46,0.458,0.01,20.76,108.4959,21.03,22.06,36.7,0,110.8,13.21,21.86,5.5
"2009-09-15 01:15:00",1241718,0.697,42.07,0.551,0.038,20.76,108.483,21,22.07,36.74,0,110.8,13.21,21.82,4.1
"2009-09-15 01:15:30",1241719,0.652,39.35,1.597,0.019,20.72,108.4717,20.97,22.06,36.75,0,110.8,13.2,21.80,1.3
"2009-09-15 01:16:00",1241720,0.622,40.14,1.674,0.037,20.79,108.4711,20.97,22.06,36.77,0,110.8,13.2,21.79,2.1
"2009-09-15 01:16:30",1241721,0.627,38.21,2.129,0.044,20.79,108.4711,20.97,22.03,36.8,0,110.8,13.2,21.79,0.2
"2009-09-15 01:17:00",1241722,0.645,38.14,1.357,0.036,20.76,108.4711,20.97,22.03,36.83,0,110.8,13.2,21.79,0.1
"2009-09-15 01:17:30",1241723,0.625,36.23,1.304,0.049,20.76,108.4711,20.97,22,36.85,0,110.8,13.2,21.79,358.2
"2009-09-15 01:18:00",1241724,0.544,34.37,1.945,0.05,20.79,108.4644,20.95,22,36.89,0,110.8,13.2,21.78,356.4
"2009-09-15 01:18:30",1241725,0.452,31.88,3.164,0.066,20.78,108.4486,20.91,21.98,36.89,0,110.8,13.2,21.74,353.9
"2009-09-15 01:19:00",1241726,0.433,31.42,3.13,0.056,20.77,108.4398,20.89,21.98,36.91,0,110.8,13.2,21.71,353.4
"2009-09-15 01:19:30",1241727,0.421,30.55,2.502,0.058,20.77,108.4401,20.89,21.97,36.93,0,110.8,13.2,21.71,352.5
"2009-09-15 01:20:00",1241728,0.421,28.12,2.989,0.067,20.77,108.441,20.89,21.96,36.98,0,110.8,13.2,21.72,350.1
"2009-09-15 01:20:30",1241729,0.335,26.96,2.238,0.052,20.71,108.4468,20.91,21.94,37,0,110.8,13.21,21.73,349.0
"2009-09-15 01:21:00",1241730,0.324,24.64,4.474,0.06,20.73,108.4395,20.89,21.93,37.01,0,110.8,13.21,21.71,346.6
"2009-09-15 01:21:30",1241731,0.337,24.17,4.889,0.062,20.74,108.4291,20.86,21.91,37.03,0,110.8,13.21,21.69,346.2
"2009-09-15 01:22:00",1241732,0.336,20.81,4.027,0.069,20.76,108.4216,20.84,21.92,37.06,0,110.8,13.21,21.67,342.8
"2009-09-15 01:22:30",1241733,0.312,19.55,2.882,0.048,20.75,108.4241,20.85,21.89,37.08,0,110.8,13.21,21.67,341.5
"2009-09-15 01:23:00",1241734,0.072,12.25,7.597,0.083,20.39,108.4271,20.86,21.89,37.1,0,110.8,13.21,21.68,334.2
"2009-09-15 01:23:30",1241735,0.075,9.87,7.39,0.048,20.36,108.4308,20.86,21.88,37.15,0,110.8,13.21,21.69,331.9
"2009-09-15 01:24:00",1241736,0.08,13.06,5.473,0.05,20.4,108.4241,20.85,21.87,37.19,0,110.8,13.21,21.67,335.1
"2009-09-15 01:24:30",1241737,0.141,14.98,6.457,0.09,20.47,108.4147,20.82,21.85,37.18,0,110.8,13.21,21.65,337.0
"2009-09-15 01:25:00",1241738,0.189,16.41,5.261,0.073,20.6,108.4007,20.79,21.83,37.15,0,110.8,13.21,21.61,338.4
"2009-09-15 01:25:30",1241739,0.101,12.6,7.061,0.079,20.48,108.4034,20.79,21.82,37.12,0,110.8,13.21,21.62,334.6
"2009-09-15 01:26:00",1241740,0.2,18.17,4.863,0.09,20.6,108.4031,20.79,21.81,37.13,0,110.8,13.21,21.62,340.2
"2009-09-15 01:26:30",1241741,0.345,21.7,2.134,0.036,20.76,108.4005,20.79,21.8,37.15,0,110.8,13.21,21.61,343.7
"2009-09-15 01:27:00",1241742,0.348,21.9,2.541,0.045,20.75,108.3814,20.74,21.76,37.15,0,110.8,13.21,21.56,343.9
"2009-09-15 01:27:30",1241743,0.33,23.97,2.654,0.053,20.72,108.373,20.72,21.76,37.21,0,110.8,13.21,21.54,346.0
"2009-09-15 01:28:00",1241744,0.304,21.17,3.167,0.053,20.71,108.3727,20.72,21.75,37.2,0,110.8,13.22,21.54,343.2
"2009-09-15 01:28:30",1241745,0.373,17.84,2.151,0.043,20.76,108.3727,20.72,21.73,37.19,0,110.8,13.22,21.54,339.8
"2009-09-15 01:29:00",1241746,0.341,19.64,3.061,0.045,20.74,108.3595,20.68,21.71,37.24,0,110.8,13.22,21.51,341.6
"2009-09-15 01:29:30",1241747,0.307,19.81,3.052,0.037,20.72,108.3392,20.63,21.68,37.32,0,110.8,13.22,21.45,341.8
"2009-09-15 01:30:00",1241748,0.302,22.27,1.785,0.04,20.72,108.339,20.63,21.68,37.36,0,110.8,13.22,21.45,344.3
"2009-09-15 01:30:30",1241749,0.28,24.91,2.955,0.047,20.69,108.3387,20.63,21.65,37.43,0,110.8,13.22,21.45,346.9
"2009-09-15 01:31:00",1241750,0.276,22.15,2.922,0.046,20.71,108.3232,20.59,21.63,37.46,0,110.8,13.22,21.41,344.1
"2009-09-15 01:31:30",1241751,0.297,22.01,2.277,0.053,20.72,108.3069,20.55,21.61,37.52,0,110.8,13.22,21.37,344.0
"2009-09-15 01:32:00",1241752,0.254,25.96,3.192,0.056,20.67,108.3052,20.54,21.6,37.58,0,110.8,13.22,21.37,348.0
"2009-09-15 01:32:30",1241753,0.304,24.9,3.496,0.045,20.7,108.3049,20.54,21.58,37.66,0,110.8,13.21,21.37,346.9
"2009-09-15 01:33:00",1241754,0.351,23.49,2.608,0.046,20.73,108.288,20.5,21.56,37.71,0,110.8,13.22,21.32,345.5
"2009-09-15 01:33:30",1241755,0.381,23.03,1.843,0.034,20.73,108.2726,20.46,21.53,37.79,0,110.8,13.22,21.28,345.0
"2009-09-15 01:34:00",1241756,0.314,23.83,3.263,0.053,20.71,108.2714,20.46,21.51,37.83,0,110.8,13.22,21.28,345.8
"2009-09-15 01:34:30",1241757,0.277,24.49,3.171,0.052,20.72,108.2706,20.45,21.5,37.91,0,110.8,13.22,21.28,346.5
"2009-09-15 01:35:00",1241758,0.287,23.91,3.135,0.067,20.71,108.2506,20.4,21.47,38,0,110.8,13.22,21.23,345.9
"2009-09-15 01:35:30",1241759,0.349,24.17,1.816,0.038,20.75,108.2377,20.37,21.46,38.07,0,110.8,13.22,21.19,346.2
"2009-09-15 01:36:00",1241760,0.364,23.27,2.252,0.03,20.75,108.2377,20.37,21.44,38.13,0,110.8,13.22,21.19,345.3
"2009-09-15 01:36:30",1241761,0.324,23.1,2.27,0.036,20.69,108.2309,20.35,21.41,38.18,0,110.8,13.22,21.18,345.1
"2009-09-15 01:37:00",1241762,0.316,24.39,3.002,0.045,20.7,108.2109,20.3,21.39,38.18,0,110.8,13.22,21.12,346.4
"2009-09-15 01:37:30",1241763,0.332,25.65,2.471,0.055,20.69,108.2039,20.28,21.37,38.22,0,110.8,13.22,21.11,347.6
"2009-09-15 01:38:00",1241764,0.362,24.67,2.107,0.041,20.7,108.2039,20.28,21.35,38.25,0,110.8,13.22,21.11,346.7
"2009-09-15 01:38:30",1241765,0.364,23.76,1.932,0.04,20.7,108.2019,20.28,21.34,38.29,0,110.8,13.23,21.10,345.8
"2009-09-15 01:39:00",1241766,0.354,25.15,3.231,0.045,20.69,108.182,20.23,21.31,38.32,0,110.8,13.23,21.05,347.1
"2009-09-15 01:39:30",1241767,0.314,26.37,3.037,0.044,20.65,108.1702,20.2,21.3,38.34,0,110.8,13.23,21.02,348.4
"2009-09-15 01:40:00",1241768,0.321,28.14,2.566,0.041,20.67,108.1702,20.2,21.29,38.32,0,110.8,13.23,21.02,350.1
"2009-09-15 01:40:30",1241769,0.332,28.72,3.181,0.046,20.68,108.1654,20.18,21.27,38.29,0,110.8,13.23,21.01,350.7
"2009-09-15 01:41:00",1241770,0.365,26.51,2.635,0.048,20.67,108.1535,20.15,21.25,38.3,0,110.8,13.23,20.98,348.5
"2009-09-15 01:41:30",1241771,0.394,28.51,2.318,0.048,20.68,108.137,20.11,21.22,38.24,0,110.8,13.23,20.93,350.5
"2009-09-15 01:42:00",1241772,0.421,27.53,1.881,0.052,20.67,108.1367,20.11,21.2,38.23,0,110.8,13.23,20.93,349.5
"2009-09-15 01:42:30",1241773,0.434,26.61,2.947,0.054,20.67,108.1319,20.1,21.18,38.26,0,110.8,13.23,20.92,348.6
"2009-09-15 01:43:00",1241774,0.425,24.79,2.951,0.052,20.68,108.1089,20.04,21.16,38.25,0,110.8,13.23,20.86,346.8
"2009-09-15 01:43:30",1241775,0.454,22.76,2.609,0.057,20.66,108.1063,20.03,21.14,38.25,0,110.8,13.23,20.85,344.8
"2009-09-15 01:44:00",1241776,0.451,23.24,2.44,0.058,20.66,108.106,20.03,21.12,38.26,0,110.8,13.23,20.85,345.2
"2009-09-15 01:44:30",1241777,0.461,23.55,2.214,0.055,20.66,108.0979,20.01,21.1,38.36,0,110.8,13.23,20.83,345.5
"2009-09-15 01:45:00",1241778,0.444,25.97,2.402,0.055,20.64,108.0879,19.99,21.09,38.45,0,110.8,13.23,20.81,348.0
"2009-09-15 01:45:30",1241779,0.447,27.81,2.655,0.051,20.63,108.0759,19.95,21.06,38.48,0,110.8,13.23,20.78,349.8
"2009-09-15 01:46:00",1241780,0.488,28.94,2.824,0.06,20.63,108.0771,19.96,21.05,38.5,0,110.8,13.23,20.78,350.9
"2009-09-15 01:46:30",1241781,0.463,29.56,2.154,0.047,20.63,108.0739,19.95,21.02,38.55,0,110.8,13.23,20.77,351.6
"2009-09-15 01:47:00",1241782,0.463,30.14,2.433,0.032,20.61,108.0558,19.9,21,38.63,0,110.8,13.23,20.72,352.1
"2009-09-15 01:47:30",1241783,0.504,30.64,2.394,0.05,20.62,108.0445,19.87,20.99,38.69,0,110.8,13.23,20.70,352.6
"2009-09-15 01:48:00",1241784,0.542,32.59,2.798,0.077,20.62,108.0436,19.87,20.99,38.74,0,110.7,13.23,20.69,354.6